Hourly Data Report for March 02, 2011

HALIFAX STANFIELD INT'L A
NOVA SCOTIA

44°52'48.060" N
63°30'00.050" W
145.40 m
8202250
71395
YHZ

Download Data

Hourly Data (March 2011)
Hourly Data Report for March 2, 2011
TIME
LST
Temp Definition
°C
Dew Point Definition
°C
Rel Hum Definition
%
Precip. Amount Definition
mm

Wind Dir Definition
10's deg

Wind Spd Definition
km/h
Visibility Definition
km
Stn Press Definition
kPa
Hmdx Definition


Wind Chill Definition


Weather Definition


00:00 -8.0 -14.1 61   27 7 24.1 100.18   -12 Clear
01:00 -9.9 -13.6 74   22 7 24.1 100.26   -14 Clear
02:00 -9.4 -14.0 69   23 4 24.1 100.25   -12 Clear
03:00 -10.9 -14.3 76   22 7 24.1 100.23   -15 Clear
04:00 -10.7 -14.2 75   23 9 24.1 100.24   -16 Clear
05:00 -10.5 -14.1 75   21 9 24.1 100.25   -15 Clear
06:00 -12.3 -14.7 82   17 13 24.1 100.28   -19 Clear
07:00 -12.0 -13.8 86   17 17 24.1 100.30   -20 Clear
08:00 -7.7 -11.3 75   18 22 24.1 100.29   -15 Clear
09:00 -3.3 -8.0 70   18 30 24.1 100.25   -11 Mainly Clear
10:00 -0.6 -7.1 61   19 44 24.1 100.17   -9 Mainly Clear
11:00 1.2 -6.1 58   19 44 24.1 100.06     Mainly Clear
12:00 1.1 -5.4 62   18 39 24.1 99.96     Mostly Cloudy
13:00 1.5 -5.0 62   20 35 24.1 99.84     Mostly Cloudy
14:00 2.0 -3.9 65   19 48 24.1 99.73     Cloudy
15:00 2.0 -3.1 69   20 50 24.1 99.69     Cloudy
16:00 1.4 -2.2 77   20 46 24.1 99.63     Cloudy
17:00 1.4 -1.4 82   20 46 24.1 99.61     Cloudy
18:00 1.4 -0.7 86   20 43 24.1 99.58     Cloudy
19:00 2.0 0.0 87   19 41 24.1 99.52     Snow Showers
20:00 2.3 -0.2 84   19 37 24.1 99.41     Snow Showers
21:00 2.5 -0.6 80   18 35 8.0 99.31     Snow Showers
22:00 0.7 0.2 96   22 28 3.2 99.33     Snow Showers, Fog
23:00 0.3 -0.1 97   19 19 3.2 99.32     Snow Showers, Fog

Notes on Data Quality.

Legend

  • E = Estimated
  • M = Missing
  • NA = Not Available*
  • [empty] = Indicates an unobserved value
Date modified: